Location: Schommer Observatory
(40.5200°N, 74.4500°W)
Time: 21:58:52
(UTC-04:00)

N. Korean satellite - Pass Details

Date: 07 October 2017
Orbit: 459 x 517 km, 97.2° (Epoch: 23 October)

Event Time Altitude Azimuth Distance (km) Brightness Sun altitude
Rises 18:58:14 0° 166° (SSE) 2,583 10.1 -6.2°
Reaches altitude 10° 19:00:19 10° 166° (SSE) 1,695 9.2 -6.6°
Maximum altitude 19:03:58 85° 78° (ENE) 499 6.6 -7.3°
Drops below altitude 10° 19:07:34 10° 349° (N) 1,675 9.4 -8.0°
Sets 19:09:38 0° 349° (N) 2,550 10.4 -8.4°
